Time,TemperatureF,DewpointF,PressureIn,WindDirection,WindDirectionDegrees,WindSpeedMPH,WindSpeedGustMPH,Humidity,HourlyPrecipIn,Conditions,Clouds,dailyrainin,SoftwareType,DateUTC
2013-02-14 00:00:00,32.8,27.0,29.73,West,271,0.0,1.0,79,0.00,,,0.00,Wunderground v.1.15,2013-02-14 05:00:00,
2013-02-14 00:05:00,33.2,27.1,29.73,NE,43,1.0,2.0,78,0.00,,,0.00,Wunderground v.1.15,2013-02-14 05:05:00,
2013-02-14 00:10:00,33.5,26.7,29.72,NW,326,1.0,3.0,76,0.00,,,0.00,Wunderground v.1.15,2013-02-14 05:10:00,
2013-02-14 00:20:00,34.7,26.3,29.72,NNE,29,3.0,3.0,71,0.00,,,0.00,Wunderground v.1.15,2013-02-14 05:20:00,
2013-02-14 00:30:00,35.0,26.2,29.72,NW,309,3.0,3.0,70,0.00,,,0.00,Wunderground v.1.15,2013-02-14 05:30:00,
2013-02-14 00:35:00,35.0,26.2,29.72,North,6,4.0,4.0,70,0.00,,,0.00,Wunderground v.1.15,2013-02-14 05:35:00,
2013-02-14 00:40:00,35.0,26.2,29.72,NNW,342,5.0,6.0,70,0.00,,,0.00,Wunderground v.1.15,2013-02-14 05:40:00,
2013-02-14 00:50:00,34.7,26.6,29.71,NNE,16,4.0,4.0,72,0.00,,,0.00,Wunderground v.1.15,2013-02-14 05:50:00,
2013-02-14 01:00:00,33.4,28.2,29.71,NNW,338,6.0,6.0,81,0.00,,,0.00,Wunderground v.1.15,2013-02-14 06:00:00,
2013-02-14 01:10:00,32.3,28.6,29.72,NNE,12,5.0,5.0,86,0.00,,,0.00,Wunderground v.1.15,2013-02-14 06:10:00,
2013-02-14 01:20:00,31.6,29.0,29.72,NNW,347,3.0,3.0,90,0.00,,,0.00,Wunderground v.1.15,2013-02-14 06:20:00,
2013-02-14 01:30:00,31.4,29.1,29.72,NNW,330,2.0,2.0,91,0.00,,,0.00,Wunderground v.1.15,2013-02-14 06:30:00,
2013-02-14 01:40:00,31.2,29.1,29.72,WNW,303,1.0,1.0,92,0.00,,,0.00,Wunderground v.1.15,2013-02-14 06:40:00,
2013-02-14 01:50:00,31.0,28.9,29.72,WNW,294,2.0,2.0,92,0.00,,,0.00,Wunderground v.1.15,2013-02-14 06:50:00,
2013-02-14 02:00:00,30.9,29.1,29.72,WNW,289,1.0,1.0,93,0.00,,,0.00,Wunderground v.1.15,2013-02-14 07:00:00,
2013-02-14 02:10:00,30.7,28.9,29.72,WNW,293,1.0,1.0,93,0.00,,,0.00,Wunderground v.1.15,2013-02-14 07:10:00,
2013-02-14 02:20:00,30.5,28.7,29.71,WNW,284,1.0,1.0,93,0.00,,,0.00,Wunderground v.1.15,2013-02-14 07:20:00,
2013-02-14 02:30:00,30.2,28.4,29.72,WNW,296,1.0,2.0,93,0.00,,,0.00,Wunderground v.1.15,2013-02-14 07:30:00,
2013-02-14 02:40:00,30.3,28.5,29.72,WNW,295,2.0,2.0,93,0.00,,,0.00,Wunderground v.1.15,2013-02-14 07:40:00,
2013-02-14 02:45:00,30.2,28.4,29.72,WNW,302,1.0,2.0,93,0.00,,,0.00,Wunderground v.1.15,2013-02-14 07:45:00,
2013-02-14 02:55:00,30.0,28.0,29.72,WNW,287,1.0,1.0,92,0.00,,,0.00,Wunderground v.1.15,2013-02-14 07:55:00,
2013-02-14 03:05:00,29.8,28.0,29.73,West,280,0.0,1.0,93,0.00,,,0.00,Wunderground v.1.15,2013-02-14 08:05:00,
2013-02-14 03:15:00,29.6,27.8,29.74,West,276,0.0,0.0,93,0.00,,,0.00,Wunderground v.1.15,2013-02-14 08:15:00,
2013-02-14 03:25:00,29.3,27.3,29.74,West,280,0.0,1.0,92,0.00,,,0.00,Wunderground v.1.15,2013-02-14 08:25:00,
2013-02-14 03:35:00,28.8,27.0,29.73,NW,309,1.0,1.0,93,0.00,,,0.00,Wunderground v.1.15,2013-02-14 08:35:00,
2013-02-14 03:40:00,28.8,27.0,29.74,WNW,285,1.0,2.0,93,0.00,,,0.00,Wunderground v.1.15,2013-02-14 08:40:00,
2013-02-14 03:50:00,29.2,27.7,29.75,WNW,300,1.0,2.0,94,0.00,,,0.00,Wunderground v.1.15,2013-02-14 08:50:00,
2013-02-14 03:55:00,29.4,27.6,29.75,NW,315,1.0,2.0,93,0.00,,,0.00,Wunderground v.1.15,2013-02-14 08:55:00,
2013-02-14 04:05:00,29.6,27.8,29.76,West,280,0.0,1.0,93,0.00,,,0.00,Wunderground v.1.15,2013-02-14 09:05:00,
2013-02-14 04:10:00,29.7,27.9,29.76,WNW,282,0.0,0.0,93,0.00,,,0.00,Wunderground v.1.15,2013-02-14 09:10:00,
2013-02-14 04:20:00,29.8,27.8,29.75,NW,304,1.0,1.0,92,0.00,,,0.00,Wunderground v.1.15,2013-02-14 09:20:00,
2013-02-14 04:30:00,29.6,27.6,29.76,WNW,293,1.0,2.0,92,0.00,,,0.00,Wunderground v.1.15,2013-02-14 09:30:00,
2013-02-14 04:40:00,29.3,27.0,29.77,WNW,293,1.0,1.0,91,0.00,,,0.00,Wunderground v.1.15,2013-02-14 09:40:00,
2013-02-14 04:50:00,28.8,26.8,29.78,WNW,290,0.0,0.0,92,0.00,,,0.00,Wunderground v.1.15,2013-02-14 09:50:00,
2013-02-14 05:00:00,28.8,27.0,29.78,West,281,0.0,0.0,93,0.00,,,0.00,Wunderground v.1.15,2013-02-14 10:00:00,
2013-02-14 05:10:00,28.6,26.8,29.78,West,281,0.0,0.0,93,0.00,,,0.00,Wunderground v.1.15,2013-02-14 10:10:00,
2013-02-14 05:20:00,28.1,26.1,29.77,West,281,0.0,0.0,92,0.00,,,0.00,Wunderground v.1.15,2013-02-14 10:20:00,
2013-02-14 05:30:00,27.2,25.4,29.77,West,281,0.0,0.0,93,0.00,,,0.00,Wunderground v.1.15,2013-02-14 10:30:00,
2013-02-14 05:40:00,27.1,25.6,29.78,West,281,0.0,0.0,94,0.00,,,0.00,Wunderground v.1.15,2013-02-14 10:40:00,
2013-02-14 05:50:00,27.4,25.9,29.78,WNW,295,0.0,0.0,94,0.00,,,0.00,Wunderground v.1.15,2013-02-14 10:50:00,
2013-02-14 05:55:00,27.1,25.6,29.78,WNW,284,0.0,0.0,94,0.00,,,0.00,Wunderground v.1.15,2013-02-14 10:55:00,
2013-02-14 06:05:00,27.1,25.6,29.80,WNW,283,0.0,0.0,94,0.00,,,0.00,Wunderground v.1.15,2013-02-14 11:05:00,
2013-02-14 06:10:00,27.3,26.1,29.80,WNW,283,0.0,1.0,95,0.00,,,0.00,Wunderground v.1.15,2013-02-14 11:10:00,
2013-02-14 06:20:00,27.1,25.6,29.80,WNW,283,0.0,0.0,94,0.00,,,0.00,Wunderground v.1.15,2013-02-14 11:20:00,
2013-02-14 06:25:00,26.7,25.2,29.80,WNW,284,0.0,0.0,94,0.00,,,0.00,Wunderground v.1.15,2013-02-14 11:25:00,
2013-02-14 06:35:00,26.7,25.5,29.81,WNW,283,0.0,0.0,95,0.00,,,0.00,Wunderground v.1.15,2013-02-14 11:35:00,
2013-02-14 06:45:00,26.7,25.5,29.81,WNW,283,0.0,0.0,95,0.00,,,0.00,Wunderground v.1.15,2013-02-14 11:45:00,
2013-02-14 06:55:00,26.0,24.5,29.82,WNW,284,0.0,0.0,94,0.00,,,0.00,Wunderground v.1.15,2013-02-14 11:55:00,
2013-02-14 07:05:00,25.3,23.8,29.83,WNW,284,0.0,0.0,94,0.00,,,0.00,Wunderground v.1.15,2013-02-14 12:05:00,
2013-02-14 07:15:00,25.7,24.5,29.84,WNW,283,0.0,0.0,95,0.00,,,0.00,Wunderground v.1.15,2013-02-14 12:15:00,
2013-02-14 07:25:00,28.0,26.8,29.84,WNW,284,0.0,0.0,95,0.00,,,0.00,Wunderground v.1.15,2013-02-14 12:25:00,
2013-02-14 07:35:00,30.3,29.0,29.85,WNW,284,0.0,0.0,95,0.00,,,0.00,Wunderground v.1.15,2013-02-14 12:35:00,
2013-02-14 07:45:00,29.6,26.8,29.86,WNW,284,0.0,0.0,89,0.00,,,0.00,Wunderground v.1.15,2013-02-14 12:45:00,
2013-02-14 07:55:00,29.5,26.9,29.86,WNW,285,0.0,0.0,90,0.00,,,0.00,Wunderground v.1.15,2013-02-14 12:55:00,
2013-02-14 08:05:00,31.5,28.1,29.87,WNW,290,0.0,1.0,87,0.00,,,0.00,Wunderground v.1.15,2013-02-14 13:05:00,
2013-02-14 08:10:00,31.6,27.9,29.87,WNW,289,0.0,0.0,86,0.00,,,0.00,Wunderground v.1.15,2013-02-14 13:10:00,
2013-02-14 08:20:00,33.0,28.1,29.87,WNW,293,0.0,1.0,82,0.00,,,0.00,Wunderground v.1.15,2013-02-14 13:20:00,
2013-02-14 08:30:00,32.3,27.1,29.88,NW,315,1.0,1.0,81,0.00,,,0.00,Wunderground v.1.15,2013-02-14 13:30:00,
2013-02-14 08:40:00,32.8,27.3,29.88,NW,318,0.0,1.0,80,0.00,,,0.00,Wunderground v.1.15,2013-02-14 13:40:00,
2013-02-14 08:50:00,33.6,27.2,29.89,NW,323,1.0,1.0,77,0.00,,,0.00,Wunderground v.1.15,2013-02-14 13:50:00,
2013-02-14 09:00:00,34.4,27.3,29.89,NNW,333,1.0,2.0,75,0.00,,,0.00,Wunderground v.1.15,2013-02-14 14:00:00,
2013-02-14 09:10:00,35.0,26.5,29.89,NNW,330,2.0,2.0,71,0.00,,,0.00,Wunderground v.1.15,2013-02-14 14:10:00,
2013-02-14 09:20:00,35.5,26.7,29.90,NW,318,1.0,1.0,70,0.00,,,0.00,Wunderground v.1.15,2013-02-14 14:20:00,
2013-02-14 09:30:00,36.0,26.8,29.90,NNW,340,2.0,2.0,69,0.00,,,0.00,Wunderground v.1.15,2013-02-14 14:30:00,
2013-02-14 09:40:00,36.3,26.4,29.90,WNW,300,1.0,1.0,67,0.00,,,0.00,Wunderground v.1.15,2013-02-14 14:40:00,
2013-02-14 09:50:00,36.6,25.6,29.90,NNW,337,2.0,3.0,64,0.00,,,0.00,Wunderground v.1.15,2013-02-14 14:50:00,
2013-02-14 10:00:00,36.6,25.6,29.90,North,356,2.0,4.0,64,0.00,,,0.00,Wunderground v.1.15,2013-02-14 15:00:00,
2013-02-14 10:10:00,37.0,25.6,29.91,NW,307,2.0,2.0,63,0.00,,,0.00,Wunderground v.1.15,2013-02-14 15:10:00,
2013-02-14 10:15:00,37.3,25.1,29.91,NNW,333,1.0,2.0,61,0.00,,,0.00,Wunderground v.1.15,2013-02-14 15:15:00,
2013-02-14 10:25:00,37.9,25.6,29.91,NNW,340,2.0,3.0,61,0.00,,,0.00,Wunderground v.1.15,2013-02-14 15:25:00,
2013-02-14 10:35:00,38.3,24.8,29.91,NE,54,2.0,2.0,58,0.00,,,0.00,Wunderground v.1.15,2013-02-14 15:35:00,
2013-02-14 10:45:00,38.9,24.9,29.91,NW,326,1.0,2.0,57,0.00,,,0.00,Wunderground v.1.15,2013-02-14 15:45:00,
2013-02-14 10:55:00,39.3,24.5,29.92,NW,307,2.0,2.0,55,0.00,,,0.00,Wunderground v.1.15,2013-02-14 15:55:00,
2013-02-14 11:00:00,39.3,24.0,29.92,NW,326,3.0,4.0,54,0.00,,,0.00,Wunderground v.1.15,2013-02-14 16:00:00,
2013-02-14 11:10:00,39.9,25.5,29.92,WNW,300,2.0,2.0,56,0.00,,,0.00,Wunderground v.1.15,2013-02-14 16:10:00,
2013-02-14 11:20:00,40.2,24.0,29.92,WSW,237,1.0,1.0,52,0.00,,,0.00,Wunderground v.1.15,2013-02-14 16:20:00,
2013-02-14 11:30:00,40.8,23.1,29.92,NNW,332,1.0,1.0,49,0.00,,,0.00,Wunderground v.1.15,2013-02-14 16:30:00,
2013-02-14 11:40:00,40.7,24.0,29.92,NNW,340,2.0,3.0,51,0.00,,,0.00,Wunderground v.1.15,2013-02-14 16:40:00,
2013-02-14 11:45:00,40.7,24.0,29.92,West,273,2.0,3.0,51,0.00,,,0.00,Wunderground v.1.15,2013-02-14 16:45:00,
2013-02-14 11:55:00,40.5,23.3,29.92,East,86,2.0,2.0,50,0.00,,,0.00,Wunderground v.1.15,2013-02-14 16:55:00,
2013-02-14 12:05:00,39.9,22.7,29.91,NE,41,2.0,2.0,50,0.00,,,0.00,Wunderground v.1.15,2013-02-14 17:05:00,
2013-02-14 12:15:00,40.2,23.5,29.91,NW,321,2.0,2.0,51,0.00,,,0.00,Wunderground v.1.15,2013-02-14 17:15:00,
2013-02-14 12:25:00,40.8,23.6,29.91,WNW,283,2.0,2.0,50,0.00,,,0.00,Wunderground v.1.15,2013-02-14 17:25:00,
2013-02-14 12:35:00,41.2,23.0,29.91,North,352,2.0,2.0,48,0.00,,,0.00,Wunderground v.1.15,2013-02-14 17:35:00,
2013-02-14 12:45:00,41.3,23.1,29.91,WNW,283,1.0,2.0,48,0.00,,,0.00,Wunderground v.1.15,2013-02-14 17:45:00,
2013-02-14 12:55:00,41.2,23.5,29.91,WNW,283,2.0,4.0,49,0.00,,,0.00,Wunderground v.1.15,2013-02-14 17:55:00,
2013-02-14 13:05:00,41.7,23.4,29.91,West,271,1.0,2.0,48,0.00,,,0.00,Wunderground v.1.15,2013-02-14 18:05:00,
2013-02-14 13:15:00,40.9,22.7,29.90,NNW,346,1.0,2.0,48,0.00,,,0.00,Wunderground v.1.15,2013-02-14 18:15:00,
2013-02-14 13:20:00,40.8,23.1,29.90,NW,314,2.0,2.0,49,0.00,,,0.00,Wunderground v.1.15,2013-02-14 18:20:00,
2013-02-14 13:30:00,41.1,23.4,29.90,WNW,287,2.0,2.0,49,0.00,,,0.00,Wunderground v.1.15,2013-02-14 18:30:00,
2013-02-14 13:40:00,41.7,23.4,29.91,NNW,329,1.0,2.0,48,0.00,,,0.00,Wunderground v.1.15,2013-02-14 18:40:00,
2013-02-14 13:50:00,41.6,23.3,29.91,WNW,300,2.0,2.0,48,0.00,,,0.00,Wunderground v.1.15,2013-02-14 18:50:00,
2013-02-14 14:05:00,42.0,23.7,29.91,ESE,115,1.0,1.0,48,0.00,,,0.00,Wunderground v.1.15,2013-02-14 19:05:00,
2013-02-14 14:10:00,42.0,23.2,29.91,ENE,78,1.0,3.0,47,0.00,,,0.00,Wunderground v.1.15,2013-02-14 19:10:00,
2013-02-14 14:20:00,42.0,22.2,29.91,SE,144,2.0,2.0,45,0.00,,,0.00,Wunderground v.1.15,2013-02-14 19:20:00,
2013-02-14 14:30:00,42.0,23.2,29.92,South,169,2.0,3.0,47,0.00,,,0.00,Wunderground v.1.15,2013-02-14 19:30:00,
2013-02-14 14:40:00,42.0,22.2,29.92,SE,141,2.0,2.0,45,0.00,,,0.00,Wunderground v.1.15,2013-02-14 19:40:00,
2013-02-14 14:50:00,42.0,23.2,29.93,SW,231,1.0,2.0,47,0.00,,,0.00,Wunderground v.1.15,2013-02-14 19:50:00,
2013-02-14 14:55:00,42.0,22.7,29.93,West,281,1.0,4.0,46,0.00,,,0.00,Wunderground v.1.15,2013-02-14 19:55:00,
2013-02-14 15:05:00,42.2,23.4,29.93,ESE,107,1.0,2.0,47,0.00,,,0.00,Wunderground v.1.15,2013-02-14 20:05:00,
2013-02-14 15:15:00,41.9,23.6,29.92,WNW,288,1.0,1.0,48,0.00,,,0.00,Wunderground v.1.15,2013-02-14 20:15:00,
2013-02-14 15:25:00,42.0,23.2,29.92,South,169,0.0,0.0,47,0.00,,,0.00,Wunderground v.1.15,2013-02-14 20:25:00,
2013-02-14 15:35:00,41.9,25.5,29.93,SW,226,2.0,2.0,52,0.00,,,0.00,Wunderground v.1.15,2013-02-14 20:35:00,
2013-02-14 15:45:00,41.1,25.7,29.93,ESE,120,2.0,4.0,54,0.00,,,0.00,Wunderground v.1.15,2013-02-14 20:45:00,
2013-02-14 15:55:00,40.8,25.9,29.94,SE,124,2.0,3.0,55,0.00,,,0.00,Wunderground v.1.15,2013-02-14 20:55:00,
2013-02-14 16:05:00,40.4,25.9,29.94,SE,128,2.0,2.0,56,0.00,,,0.00,Wunderground v.1.15,2013-02-14 21:05:00,
2013-02-14 16:15:00,40.0,25.6,29.94,SSE,155,2.0,2.0,56,0.00,,,0.00,Wunderground v.1.15,2013-02-14 21:15:00,
2013-02-14 16:20:00,39.7,25.7,29.94,SE,134,1.0,1.0,57,0.00,,,0.00,Wunderground v.1.15,2013-02-14 21:20:00,
2013-02-14 16:30:00,39.5,25.5,29.94,SE,127,2.0,2.0,57,0.00,,,0.00,Wunderground v.1.15,2013-02-14 21:30:00,
2013-02-14 16:40:00,39.1,25.6,29.95,SSE,152,2.0,2.0,58,0.00,,,0.00,Wunderground v.1.15,2013-02-14 21:40:00,
2013-02-14 16:50:00,38.8,25.3,29.95,ESE,117,1.0,1.0,58,0.00,,,0.00,Wunderground v.1.15,2013-02-14 21:50:00,
2013-02-14 16:55:00,38.7,25.2,29.95,ESE,117,1.0,1.0,58,0.00,,,0.00,Wunderground v.1.15,2013-02-14 21:55:00,
2013-02-14 17:05:00,38.1,25.0,29.95,SE,131,1.0,1.0,59,0.00,,,0.00,Wunderground v.1.15,2013-02-14 22:05:00,
2013-02-14 17:15:00,37.6,25.0,29.96,SSW,205,0.0,1.0,60,0.00,,,0.00,Wunderground v.1.15,2013-02-14 22:15:00,
2013-02-14 17:25:00,37.1,24.5,29.97,SSE,160,0.0,0.0,60,0.00,,,0.00,Wunderground v.1.15,2013-02-14 22:25:00,
2013-02-14 17:30:00,36.8,24.2,29.98,SSE,159,0.0,0.0,60,0.00,,,0.00,Wunderground v.1.15,2013-02-14 22:30:00,
2013-02-14 17:35:00,36.5,24.3,29.98,SSE,157,0.0,0.0,61,0.00,,,0.00,Wunderground v.1.15,2013-02-14 22:35:00,
2013-02-14 17:45:00,35.9,24.5,29.98,SSE,156,0.0,0.0,63,0.00,,,0.00,Wunderground v.1.15,2013-02-14 22:45:00,
2013-02-14 17:55:00,35.2,24.2,29.98,SSE,156,0.0,0.0,64,0.00,,,0.00,Wunderground v.1.15,2013-02-14 22:55:00,
2013-02-14 18:05:00,34.8,24.2,29.98,SSE,156,0.0,0.0,65,0.00,,,0.00,Wunderground v.1.15,2013-02-14 23:05:00,
2013-02-14 18:10:00,34.4,23.8,29.98,SSE,156,0.0,0.0,65,0.00,,,0.00,Wunderground v.1.15,2013-02-14 23:10:00,
2013-02-14 18:15:00,33.9,23.7,29.98,SSE,156,0.0,0.0,66,0.00,,,0.00,Wunderground v.1.15,2013-02-14 23:15:00,
2013-02-14 18:25:00,33.3,23.5,29.98,SSE,156,0.0,0.0,67,0.00,,,0.00,Wunderground v.1.15,2013-02-14 23:25:00,
2013-02-14 18:35:00,32.6,23.6,29.98,SSE,156,0.0,0.0,69,0.00,,,0.00,Wunderground v.1.15,2013-02-14 23:35:00,
2013-02-14 18:45:00,32.5,23.5,29.98,SSE,156,0.0,0.0,69,0.00,,,0.00,Wunderground v.1.15,2013-02-14 23:45:00,
2013-02-14 18:55:00,31.8,23.5,29.98,SSE,157,0.0,0.0,71,0.00,,,0.00,Wunderground v.1.15,2013-02-14 23:55:00,
2013-02-14 19:05:00,31.6,23.6,29.98,SSE,156,0.0,0.0,72,0.00,,,0.00,Wunderground v.1.15,2013-02-15 00:05:00,
2013-02-14 19:10:00,31.6,23.6,29.98,SSE,156,0.0,0.0,72,0.00,,,0.00,Wunderground v.1.15,2013-02-15 00:10:00,
2013-02-14 19:20:00,31.2,23.9,29.99,SSE,156,0.0,0.0,74,0.00,,,0.00,Wunderground v.1.15,2013-02-15 00:20:00,
2013-02-14 19:30:00,30.8,24.4,30.00,SE,127,0.0,0.0,77,0.00,,,0.00,Wunderground v.1.15,2013-02-15 00:30:00,
2013-02-14 19:40:00,30.4,24.4,30.00,SE,126,0.0,0.0,78,0.00,,,0.00,Wunderground v.1.15,2013-02-15 00:40:00,
2013-02-14 19:50:00,30.0,23.4,29.99,SE,125,0.0,0.0,76,0.00,,,0.00,Wunderground v.1.15,2013-02-15 00:50:00,
2013-02-14 20:00:00,29.7,23.4,30.00,SE,125,0.0,0.0,77,0.00,,,0.00,Wunderground v.1.15,2013-02-15 01:00:00,
2013-02-14 20:10:00,29.3,23.6,29.99,SE,125,0.0,0.0,79,0.00,,,0.00,Wunderground v.1.15,2013-02-15 01:10:00,
2013-02-14 20:15:00,29.1,23.4,29.99,SE,125,0.0,0.0,79,0.00,,,0.00,Wunderground v.1.15,2013-02-15 01:15:00,
2013-02-14 20:25:00,29.0,23.3,30.00,South,170,0.0,0.0,79,0.00,,,0.00,Wunderground v.1.15,2013-02-15 01:25:00,
2013-02-14 20:35:00,28.4,22.7,30.00,South,171,0.0,0.0,79,0.00,,,0.00,Wunderground v.1.15,2013-02-15 01:35:00,
2013-02-14 20:45:00,27.8,22.7,30.00,South,170,0.0,0.0,81,0.00,,,0.00,Wunderground v.1.15,2013-02-15 01:45:00,
2013-02-14 20:55:00,27.4,22.3,30.00,South,170,0.0,0.0,81,0.00,,,0.00,Wunderground v.1.15,2013-02-15 01:55:00,
2013-02-14 21:05:00,26.7,22.2,30.00,South,170,0.0,0.0,83,0.00,,,0.00,Wunderground v.1.15,2013-02-15 02:05:00,
2013-02-14 21:15:00,26.3,22.1,30.00,South,170,0.0,0.0,84,0.00,,,0.00,Wunderground v.1.15,2013-02-15 02:15:00,
2013-02-14 21:25:00,26.8,23.2,30.00,West,276,0.0,1.0,86,0.00,,,0.00,Wunderground v.1.15,2013-02-15 02:25:00,
2013-02-14 21:35:00,26.9,23.0,30.00,West,275,0.0,0.0,85,0.00,,,0.00,Wunderground v.1.15,2013-02-15 02:35:00,
2013-02-14 21:45:00,26.6,23.0,30.01,West,276,0.0,0.0,86,0.00,,,0.00,Wunderground v.1.15,2013-02-15 02:45:00,
2013-02-14 21:55:00,26.9,23.3,30.01,SSE,160,0.0,0.0,86,0.00,,,0.00,Wunderground v.1.15,2013-02-15 02:55:00,
2013-02-14 22:05:00,27.7,24.1,30.01,SE,135,0.0,1.0,86,0.00,,,0.00,Wunderground v.1.15,2013-02-15 03:05:00,
2013-02-14 22:15:00,28.5,25.4,30.01,SSE,156,0.0,1.0,88,0.00,,,0.00,Wunderground v.1.15,2013-02-15 03:15:00,
2013-02-14 22:20:00,28.9,25.5,30.01,SSE,156,0.0,0.0,87,0.00,,,0.00,Wunderground v.1.15,2013-02-15 03:20:00,
2013-02-14 22:30:00,30.0,26.6,30.00,SE,127,0.0,0.0,87,0.00,,,0.00,Wunderground v.1.15,2013-02-15 03:30:00,
2013-02-14 22:40:00,30.4,27.0,30.00,SSE,150,0.0,0.0,87,0.00,,,0.00,Wunderground v.1.15,2013-02-15 03:40:00,
2013-02-14 22:50:00,30.9,27.5,30.01,SSE,148,0.0,0.0,87,0.00,,,0.00,Wunderground v.1.15,2013-02-15 03:50:00,
2013-02-14 23:00:00,30.9,27.5,30.01,SSE,148,0.0,0.0,87,0.00,,,0.00,Wunderground v.1.15,2013-02-15 04:00:00,
2013-02-14 23:10:00,30.6,27.5,30.01,SSE,148,0.0,0.0,88,0.00,,,0.00,Wunderground v.1.15,2013-02-15 04:10:00,
2013-02-14 23:20:00,30.7,27.6,30.01,SSE,148,0.0,0.0,88,0.00,,,0.00,Wunderground v.1.15,2013-02-15 04:20:00,
2013-02-14 23:30:00,30.3,27.2,30.00,SSE,148,0.0,0.0,88,0.00,,,0.00,Wunderground v.1.15,2013-02-15 04:30:00,
2013-02-14 23:35:00,30.1,27.3,30.00,SSE,148,0.0,0.0,89,0.00,,,0.00,Wunderground v.1.15,2013-02-15 04:35:00,
2013-02-14 23:45:00,30.3,28.0,30.00,SSE,148,0.0,0.0,91,0.00,,,0.00,Wunderground v.1.15,2013-02-15 04:45:00,
2013-02-14 23:55:00,30.7,28.4,30.00,SSE,148,0.0,0.0,91,0.00,,,0.00,Wunderground v.1.15,2013-02-15 04:55:00,